#timestamp,LO_Frequency,Hit,StdDev 
1648897215.8,286046999.6,N
1648897235.7,286046998.7,N
1648897255.5,286046999.0,N
1648897275.4,286046996.7,Y
1648897295.2,286046999.6,P
1648897315.0,286046998.5,P
1648897315.9,286046998.5,P
1648897335.8,286046998.1,Y
1648897355.6,286047001.0,P
1648897375.5,286047000.8,N
1648897395.3,286046998.8,N
1648897415.1,286046998.7,N
1648897435.9,286046998.4,N
1648897455.7,286046999.4,N
1648897475.5,286046999.4,N
1648897495.4,286046997.2,Y
1648897515.2,286046996.5,P
1648897535.1,286046996.5,N
1648897536.0,286046996.5,N
1648897555.8,286046997.2,N
1648897575.6,286046999.4,N
1648897595.5,286046997.5,N
1648897615.3,286046996.8,N
1648897635.2,286046999.1,N
1648897655.9,286046999.4,N
1648897675.7,286046998.8,N
1648897695.6,286046998.3,N
1648897715.4,286046997.0,N
1648897735.2,286046999.5,N
1648897755.1,286046999.5,N
1648897756.0,286046999.5,N
1648897775.8,286046999.0,N
1648897795.7,286046999.4,N
1648897815.5,286046999.5,N
1648897835.3,286046997.0,N
1648897855.2,286046999.4,N
1648897875.0,286047001.2,N
1648897875.9,286047001.2,N
1648897895.7,286047000.4,N
1648897915.6,286047000.6,N
1648897935.4,286046999.3,N
1648897955.3,286046998.5,N
1648897975.1,286046999.3,N
1648897976.0,286046999.3,N
1648897995.8,286046999.0,N
1648898015.7,286047000.8,N
1648898035.5,286046999.9,N
1648898055.3,286047000.6,N
1648898105.2,286047000.2,E
1648898115.1,286047001.2,N
1648898135.9,286046998.5,P
1648898155.7,286047000.7,N
1648898175.6,286047001.0,N
1648898195.4,286047000.0,N
1648898215.2,286046999.9,N
1648898235.1,286047000.9,N
1648898236.0,286047000.9,N
1648898255.8,286047000.1,N
1648898275.6,286047001.0,N
1648898295.5,286047000.8,N
1648898315.3,286047000.8,N
1648898335.2,286046998.7,N
1648898355.9,286047000.4,N
1648898375.7,286047000.2,N
1648898395.6,286047002.8,Y
1648898415.4,286047001.6,P
1648898435.2,286047003.8,P
1648898455.1,286047004.0,N
1648898456.0,286047004.0,N
1648898475.8,286047002.2,N
1648898495.7,286047001.7,N
1648898515.5,286047001.3,N
1648898535.3,286047003.9,N
1648898555.2,286047002.5,N
1648898575.0,286047000.1,N
1648898575.9,286047000.1,N
1648898595.7,286047000.2,N
1648898615.6,286047002.6,N
1648898635.4,286047002.6,N
1648898655.3,286047002.2,N
1648898675.1,286047002.5,N
1648898676.0,286047002.5,N
1648898695.8,286047002.7,N
1648898715.7,286046998.1,N
1648898735.5,286047001.2,N
1648898755.3,286046998.1,N
1648898775.2,286047001.0,N
1648898795.0,286047000.8,N
1648898795.9,286047000.8,N
1648898815.8,286047000.7,N
1648898835.6,286046999.9,N
1648898855.4,286046999.9,N
1648898875.3,286047000.3,N
1648898895.1,286047002.3,N
1648898915.8,286046999.7,N
1648898935.7,286047000.4,N
1648898955.5,286047000.2,N
1648898975.4,286046998.3,N
1648898995.2,286046996.7,N
1648899015.0,286046999.6,N
1648899015.9,286046999.6,N
1648899035.8,286046998.3,N
1648899055.6,286047000.8,N
1648899075.5,286047000.6,N
1648899095.3,286047000.2,N
1648899115.1,286047002.6,N
1648899135.9,286047002.0,N
1648899155.7,286047001.5,N
1648899175.5,286047003.9,N
1648899195.4,286047004.4,N
1648899215.2,286047001.3,N
1648899235.1,286047001.4,N
1648899236.0,286047001.4,N
1648899255.8,286047002.4,N
1648899275.6,286047001.9,N
1648899295.5,286047004.1,N
1648899315.3,286047002.2,N
1648899335.1,286047001.8,N
1648899355.9,286047003.1,N
1648899375.7,286047001.6,N
1648899395.6,286047004.3,N
1648899415.4,286047005.0,N
1648899435.2,286047003.3,N
1648899455.1,286047003.6,N
1648899456.0,286047003.6,N
1648899475.8,286047003.1,N
1648899495.7,286047005.9,Y
1648899515.5,286047002.6,P
1648899535.3,286047002.3,P
1648899555.2,286047002.0,P
1648899575.0,286046999.8,N
1648899575.9,286046999.8,N
1648899595.8,286046999.9,N
1648899615.6,286047000.1,N
1648899635.4,286047001.5,N
1648899655.3,286047004.4,Y
1648899675.1,286047002.1,P
1648899695.9,286047004.4,P
1648899715.7,286047003.9,N
1648899735.5,286047004.1,Y
1648899755.4,286047006.3,P
1648899775.2,286047010.0,P
1648899795.0,286047011.1,P
1648899795.9,286047011.1,Y
1648899815.8,286047005.0,P
1648899835.6,286047001.6,N
1648899855.5,286046999.9,N
1648899875.3,286046998.7,N
1648899895.1,286046999.6,N
1648899915.9,286046997.6,N
1648899935.7,286046996.0,N
1648899955.5,286046994.0,N
1648899975.4,286046994.1,N
1648899995.2,286046994.7,N
1648900015.1,286046994.4,N
1648900016.0,286046994.4,N
1648900035.8,286046994.4,N
1648900055.6,286046993.3,N
1648900075.5,286046992.6,N
1648900095.3,286046994.3,N
1648900115.2,286046994.4,N
1648900135.9,286046994.6,N
1648900155.7,286046994.5,N
1648900175.6,286046994.8,N
1648900195.4,286046992.0,N
1648900215.2,286046993.2,N
1648900235.1,286046990.7,N
1648900236.0,286046990.7,N
1648900255.8,286046991.3,N
1648900275.7,286046991.3,N
1648900295.5,286046989.4,N
1648900315.3,286046989.1,N
1648900335.2,286046989.4,N
1648900355.0,286046991.5,N
1648900355.9,286046991.5,N
1648900375.8,286046991.3,N
1648900395.6,286046991.5,Y
1648900415.4,286046998.0,P
1648900435.3,286046994.9,N
1648900455.1,286046995.2,N
1648900475.9,286046995.7,N
1648900495.7,286046996.4,N
1648900515.5,286046993.5,Y
1648900535.4,286046999.5,P
1648900555.2,286047000.7,N
1648900575.0,286047001.1,N
1648900576.0,286047001.1,N
1648900595.8,286046998.6,N
1648900615.6,286047001.1,N
1648900635.5,286047000.4,N
1648900655.3,286047002.7,N
1648900675.1,286046998.2,N
1648900695.9,286047000.5,N
1648900715.7,286047003.7,N
1648900735.6,286047001.8,N
1648900755.4,286047004.4,N
1648900775.2,286047002.5,N
1648900795.1,286047002.0,N
1648900796.0,286047002.0,N
